This demonstration page uses our WeatherBlox Daily Observations layout. Learn more.

Left ArrowRight Arrow

53.62937, 11.41316

Hourly Observations for May 19, 2022

Temp ( °F °C ) Dew Point ( °F °C ) Humidity (%) Winds ( mph kmh ) Pressure ( in mb ) Visibility ( mi km ) Precip ( " mm )
12:20 am 00:20 Mostly Clear 68 20 57 14 69 69 SSE 5 7 30.12 1020 30 48 N/A
12:50 am 00:50 Mostly Clear 66 19 57 14 73 73 SSE 5 7 30.12 1020 30 48 N/A
1:20 am 01:20 Mostly Cloudy 66 19 57 14 73 73 SSE 6 9 30.12 1020 30 48 N/A
1:50 am 01:50 Cloudy 66 19 57 14 73 73 SSE 6 9 30.12 1020 30 48 N/A
2:20 am 02:20 Cloudy 66 19 57 14 73 73 SSE 6 9 30.09 1019 30 48 N/A
2:50 am 02:50 Cloudy 66 19 57 14 73 73 SSE 6 9 30.09 1019 30 48 N/A
3:20 am 03:20 Mostly Cloudy 66 19 57 14 73 73 SSE 7 11 30.09 1019 30 48 N/A
3:50 am 03:50 Cloudy 66 19 57 14 73 73 S 6 9 30.09 1019 30 48 N/A
4:20 am 04:20 Mostly Cloudy 64 18 55 13 73 73 SSE 6 9 30.09 1019 30 48 N/A
4:50 am 04:50 Mostly Clear 64 18 55 13 73 73 SSE 5 7 30.09 1019 30 48 N/A
5:20 am 05:20 Partly Cloudy 64 18 55 13 73 73 SSE 6 9 30.09 1019 30 48 N/A
5:50 am 05:50 Partly Cloudy 63 17 55 13 77 77 SSE 5 7 30.09 1019 30 48 N/A
6:20 am 06:20 Mostly Sunny 63 17 55 13 77 77 SSE 5 7 30.09 1019 7 11 N/A
6:50 am 06:50 Mostly Sunny 63 17 55 13 77 77 SSE 6 9 30.09 1019 7 11 N/A
7:20 am 07:20 Mostly Sunny 64 18 57 14 78 78 SSE 5 7 30.09 1019 7 11 N/A
7:50 am 07:50 Mostly Sunny 66 19 57 14 73 73 SSE 5 7 30.09 1019 7 11 N/A
8:20 am 08:20 Mostly Sunny 68 20 57 14 69 69 VRB 2 4 30.09 1019 7 11 N/A
8:50 am 08:50 Mostly Sunny 70 21 59 15 69 69 VRB 2 4 30.09 1019 7 11 N/A
9:20 am 09:20 Mostly Sunny 72 22 59 15 65 65 VRB 3 6 30.09 1019 7 11 N/A
9:50 am 09:50 Mostly Sunny 73 23 61 16 65 65 S 6 9 30.09 1019 7 11 N/A
10:20 am 10:20 Mostly Sunny 75 24 61 16 61 61 S 6 9 30.06 1018 7 11 N/A
10:50 am 10:50 Mostly Sunny 77 25 61 16 57 57 VRB 6 9 30.06 1018 7 11 N/A
11:20 am 11:20 Mostly Sunny 79 26 61 16 54 54 S 6 9 30.06 1018 7 11 N/A
11:50 am 11:50 Mostly Sunny 81 27 59 15 48 48 SSW 7 11 30.06 1018 7 11 N/A
12:20 pm 12:20 Mostly Sunny 81 27 59 15 48 48 VRB 5 7 30.06 1018 7 11 N/A
12:50 pm 12:50 Mostly Sunny 81 27 57 14 45 45 S 6 9 30.03 1017 7 11 N/A
1:20 pm 13:20 Mostly Sunny 81 27 57 14 45 45 S 6 9 30.03 1017 7 11 N/A
1:50 pm 13:50 Mostly Sunny 82 28 57 14 42 42 S 7 11 30.03 1017 7 11 N/A
2:20 pm 14:20 Mostly Sunny 82 28 55 13 40 40 VRB 7 11 30.00 1016 7 11 N/A
2:50 pm 14:50 Mostly Sunny 82 28 55 13 40 40 VRB 7 11 30.00 1016 7 11 N/A
3:20 pm 15:20 Mostly Sunny 84 29 54 12 35 35 VRB 5 7 30.00 1016 7 11 N/A
3:50 pm 15:50 Mostly Sunny 82 28 55 13 40 40 S 7 11 30.00 1016 7 11 N/A
4:20 pm 16:20 Mostly Sunny 84 29 55 13 37 37 VRB 5 7 29.97 1015 7 11 N/A
4:50 pm 16:50 Mostly Sunny 81 27 55 13 42 42 VRB 5 7 29.97 1015 7 11 N/A
5:20 pm 17:20 Mostly Sunny 82 28 55 13 40 40 VRB 5 7 29.97 1015 7 11 N/A
5:50 pm 17:50 Mostly Sunny 81 27 55 13 42 42 VRB 2 4 29.97 1015 7 11 N/A
6:20 pm 18:20 Mostly Sunny 81 27 57 14 45 45 VRB 2 4 29.94 1014 7 11 N/A
6:50 pm 18:50 Mostly Sunny 79 26 57 14 48 48 VRB 1 2 29.94 1014 7 11 N/A
7:20 pm 19:20 Cloudy with Rain 64 18 63 17 94 94 W 22 35 30.00 1016 2 4 N/A
7:50 pm 19:50 Cloudy with Showers and Nearby Thunderstorms 63 17 63 17 100 100 W 9 15 30.03 1017 4 7 N/A
8:20 pm 20:20 Mostly Cloudy with Light Showers 63 17 61 16 94 94 NE 5 7 29.97 1015 6 9 N/A
8:50 pm 20:50 Mostly Cloudy with Light Rain 63 17 61 16 94 94 SSE 5 7 29.97 1015 30 48 N/A
9:20 pm 21:20 Mostly Clear 63 17 61 16 94 94 VRB 2 4 30.00 1016 7 11 N/A
9:50 pm 21:50 Mostly Clear 63 17 61 16 94 94 S 3 6 30.00 1016 7 11 N/A
10:20 pm 22:20 Mostly Clear 61 16 61 16 100 100 VRB 2 4 30.00 1016 7 11 N/A
10:50 pm 22:50 Mostly Clear 61 16 61 16 100 100 VRB 3 6 30.03 1017 7 11 N/A
11:20 pm 23:20 Mostly Cloudy 61 16 61 16 100 100 VRB 2 4 30.03 1017 5 8 N/A
11:50 pm 23:50 Mostly Cloudy 63 17 61 16 94 94 VRB 2 4 30.03 1017 6 9 N/A

Powered by AerisWeather